Cloud_Cover
100 100 100 100 100 69 99 39 58 52 93 100 98 100 100 100 100 88 96 86 40 2 100 46 5 48 5 3 1 4 0 0 0 0 0 1 0 0 0 2 38 4 2
85 100 100 82 99 100 32 92 10 99 100 100 100 100 96 100 87 90 91 63 0 6 44 41 60 5 5 4 5 0 1 0 0 0 0 0 0 1 0 1 0 0 4
98 100 99 80 71 22 57 37 100 100 100 100 100 100 100 100 100 100 100 98 27 5 15 16 16 5 5 92 5 0 2 0 0 0 1 0 1 6 2 6 10 10 7
100 100 100 100 76 100 100 100 100 100 100 100 100 100 100 100 100 100 100 94 98 6 5 5 5 45 97 8 5 5 4 1 0 0 1 0 0 0 8 10 0 9 14
100 100 100 100 100 100 100 100 100 100 100 100 100 100 92 100 100 100 99 98 81 49 69 5 26 78 5 7 7 7 5 4 0 0 0 0 0 0 0 0 0 9 5
100 92 47 100 99 88 74 82 100 100 100 100 100 100 100 100 100 100 99 100 61 22 12 54 99 27 99 78 5 5 0 0 0 0 0 0 0 0 0 0 2 4 17
99 100 33 54 100 99 100 100 100 100 100 100 100 100 100 100 92 62 97 100 39 5 6 100 90 69 83 77 5 0 0 0 0 0 0 0 0 0 0 0 3 1 5
87 100 100 97 100 98 99 100 100 100 100 89 87 81 100 100 100 100 100 87 54 6 99 8 21 92 100 100 9 3 0 0 0 0 0 0 0 5 0 0 2 0 1
95 100 100 100 100 48 76 100 62 16 22 76 77 56 79 62 85 97 87 59 6 12 8 30 71 5 89 62 0 4 0 0 0 0 0 0 1 5 5 0 0 4 0
100 100 100 65 60 61 37 80 37 30 40 30 57 30 5 70 100 98 97 100 8 6 14 43 75 5 5 4 3 2 0 0 0 0 0 0 4 5 4 0 0 0 0
100 100 100 100 100 88 5 40 39 67 59 68 100 87 42 69 100 100 100 80 7 53 93 21 65 95 100 13 3 5 1 0 0 0 0 0 5 5 0 2 5 5 4
100 61 68 100 100 89 27 13 5 28 9 63 58 22 14 86 100 100 100 100 81 26 24 51 100 100 100 11 5 5 5 5 2 0 0 1 44 18 0 5 7 1 1
100 100 100 100 100 100 64 5 41 9 64 48 97 74 99 100 100 100 100 100 96 36 55 83 76 98 74 5 6 92 17 5 0 0 0 8 94 2 1 5 4 0 0
100 100 93 41 82 100 100 100 79 24 48 100 100 100 100 100 100 99 100 98 100 100 54 84 91 5 4 5 59 83 12 4 0 0 0 100 31 1 5 5 0 0 0
100 100 100 100 92 100 100 100 100 100 100 100 100 99 100 100 100 99 99 100 100 100 100 95 22 5 5 5 5 5 5 5 5 0 95 5 2 5 5 3 4 0 77
94 100 100 100 100 100 100 100 100 100 100 100 79 85 99 100 100 100 100 100 100 100 100 100 51 94 86 16 48 5 9 8 5 22 6 1 5 5 4 5 5 20 98
81 97 82 47 82 100 100 100 100 96 99 100 100 100 100 100 100 100 100 100 100 99 100 100 97 99 71 60 83 39 5 24 68 5 1 5 5 0 2 97 64 71 5
79 94 100 100 100 100 100 100 100 100 100 100 98 96 100 100 100 100 100 100 99 79 100 80 90 100 73 52 79 87 6 73 5 0 4 5 5 5 14 100 73 60 5
100 100 6 93 100 100 100 100 100 100 100 100 100 100 100 100 100 100 98 95 100 100 80 58 45 98 77 65 100 65 5 5 5 5 0 4 15 100 100 36 38 98 99
100 80 80 100 100 100 100 100 100 100 100 100 100 100 100 100 100 100 99 100 100 100 100 100 98 96 85 100 71 60 8 5 10 5 5 85 72 88 64 14 34 98 79
100 100 100 100 100 100 100 100 100 100 100 100 100 100 100 100 100 100 100 100 100 77 94 100 100 99 100 89 97 100 22 98 97 98 100 25 41 100 98 92 23 100 100
97 99 100 100 100 100 100 100 100 87 100 100 100 100 100 100 100 100 100 100 100 100 100 100 100 100 99 100 98 100 100 100 100 96 95 100 99 83 86 45 78 100 100
100 100 100 100 100 100 100 100 100 84 100 99 100 100 100 100 100 100 100 100 100 97 100 94 100 100 100 100 100 100 100 100 100 100 100 91 100 97 57 94 100 100 100
100 100 100 100 100 100 100 100 100 100 100 99 99 100 100 100 100 100 100 100 100 100 100 100 100 94 100 100 100 100 100 100 100 100 100 100 100 69 100 100 100 100 100
100 100 100 100 100 100 100 100 96 100 100 100 100 100 100 100 100 100 100 100 100 100 100 100 100 100 100 100 100 100 100 100 100 100 100 99 88 100 100 100 100 100 100
100 100 100 100 100 100 100 100 100 100 100 100 100 100 100 100 100 100 100 100 100 100 100 100 100 100 100 100 100 100 100 100 100 100 100 93 97 100 100 100 100 100 79